Simultaneous Nadir Overpasses (SNOs) Predictions

Prediction of SNOs between METOP-B and NOAA-19 Satellite Orbit:

Table of predicted SNOs for the next 14.0 days since TLE Epoch: 7/10/2021
Index Date (METOP-B) Time (METOP-B) Lat,Lon (METOP-B) SZA (METOP-B ) Date (NOAA-19) Time (NOAA-19) Lat,Lon (NOAA-19) SZA (NOAA-19 ) Distance(km) Time Diff (sec)
1 07/14/2021 15:05:01 80.57, -17.02 60.11 07/14/2021 15:03:50 80.57, -17.16 60.08 2.52 71
2 07/14/2021 15:55:42 -80.57, 150.41 119.87 07/14/2021 15:54:52 -80.56, 150.38 119.91 1.90 50
3 07/14/2021 16:46:23 80.56, -42.49 60.10 07/14/2021 16:45:50 80.57, -42.55 60.09 1.45 33
4 07/14/2021 17:37:04 -80.56, 124.94 119.88 07/14/2021 17:36:52 -80.55, 124.99 119.89 1.64 12
5 07/14/2021 18:27:45 80.55, -67.96 60.09 07/14/2021 18:27:50 80.56, -67.95 60.11 1.50 5
6 07/14/2021 19:18:26 -80.56, 99.47 119.89 07/14/2021 19:18:52 -80.55, 99.60 119.88 2.55 26
7 07/14/2021 20:09:07 80.54, -93.44 60.09 07/14/2021 20:09:50 80.56, -93.35 60.12 2.60 43



Historial Predications of SNOs between METOP-B and NOAA-19
